When you browse on this site, cookies collect data to enhance your experience and personalize the content and advertising you see.
Visit our Privacy Policy to learn more. By continuing to use the site, you agree to this use of cookies and data.
  • In Hungary
  • List of Countries
  • For 7 days
  • Water Temperature
  • Weather Map
  • News
  • Weather Widgets
  • user-avatar
    Login

    Hourly Weather Borovec

    Today, 28 May, Thursday

    Time Temperature Precipitation Wind Pressure Humidity
    00:00 +8°C° 0 mm 1 mps 713 mmHg 91%
    01:00 +8°C° 0 mm 1 mps 713 mmHg 92%
    02:00 +8°C° 0 mm 1 mps 713 mmHg 92%
    03:00 +8°C° 0 mm 1 mps 713 mmHg 92%
    04:00 +8°C° 0 mm 1 mps 713 mmHg 93%
    05:00 +8°C° 0 mm 1 mps 713 mmHg 93%
    06:00 +9°C° 0 mm 1 mps 712 mmHg 90%
    07:00 +11°C° 0 mm 1 mps 712 mmHg 88%
    08:00 +12°C° 0 mm 2 mps 712 mmHg 85%
    09:00 +13°C° 0.4 mm 2 mps 712 mmHg 82%
    10:00 +13°C° 0.4 mm 3 mps 712 mmHg 78%
    11:00 +14°C° 0.4 mm 3 mps 712 mmHg 75%
    12:00 +14°C° 0.8 mm 3 mps 712 mmHg 74%
    13:00 +14°C° 0.8 mm 3 mps 711 mmHg 73%
    14:00 +15°C° 0.8 mm 4 mps 711 mmHg 73%
    15:00 +16°C° 0.8 mm 3 mps 710 mmHg 74%
    16:00 +14°C° 0.8 mm 3 mps 710 mmHg 76%
    17:00 +14°C° 0.8 mm 3 mps 710 mmHg 77%
    18:00 +13°C° 0.5 mm 3 mps 710 mmHg 81%
    19:00 +12°C° 0.5 mm 2 mps 710 mmHg 85%
    20:00 +11°C° 0.5 mm 1 mps 709 mmHg 89%
    21:00 +11°C° 0.2 mm 1 mps 710 mmHg 89%
    22:00 +10°C° 0.2 mm 1 mps 710 mmHg 90%
    23:00 +10°C° 0.2 mm 1 mps 710 mmHg 91%

    Tomorrow, 29 May, Friday

    Time Temperature Precipitation Wind Pressure Humidity
    00:00 +9°C° 0 mm 1 mps 710 mmHg 91%
    01:00 +9°C° 0 mm 1 mps 710 mmHg 92%
    02:00 +8°C° 0 mm 1 mps 710 mmHg 92%
    03:00 +8°C° 0 mm 1 mps 710 mmHg 92%
    04:00 +8°C° 0 mm 1 mps 710 mmHg 93%
    05:00 +8°C° 0 mm 1 mps 710 mmHg 93%
    06:00 +10°C° 0 mm 1 mps 711 mmHg 90%
    07:00 +11°C° 0 mm 1 mps 711 mmHg 87%
    08:00 +13°C° 0 mm 2 mps 711 mmHg 84%
    09:00 +14°C° 0.3 mm 2 mps 711 mmHg 80%
    10:00 +14°C° 0.3 mm 3 mps 711 mmHg 76%
    11:00 +16°C° 0.3 mm 3 mps 711 mmHg 71%
    12:00 +16°C° 0.4 mm 3 mps 711 mmHg 70%
    13:00 +17°C° 0.4 mm 3 mps 710 mmHg 68%
    14:00 +18°C° 0.4 mm 3 mps 710 mmHg 67%
    15:00 +17°C° 0.5 mm 3 mps 710 mmHg 69%
    16:00 +17°C° 0.5 mm 3 mps 710 mmHg 71%
    17:00 +17°C° 0.5 mm 3 mps 709 mmHg 74%
    18:00 +15°C° 0.3 mm 2 mps 709 mmHg 79%
    19:00 +14°C° 0.3 mm 2 mps 709 mmHg 84%
    20:00 +12°C° 0.3 mm 1 mps 709 mmHg 89%
    21:00 +11°C° 0.1 mm 1 mps 709 mmHg 89%
    22:00 +11°C° 0.1 mm 1 mps 709 mmHg 90%
    23:00 +10°C° 0.1 mm 1 mps 710 mmHg 90%

    Day after tomorrow, 30 May, Saturday

    Time Temperature Precipitation Wind Pressure Humidity
    00:00 +10°C° 0 mm 1 mps 709 mmHg 91%
    01:00 +9°C° 0 mm 1 mps 709 mmHg 91%
    02:00 +9°C° 0 mm 1 mps 709 mmHg 92%
    03:00 +9°C° 0 mm 1 mps 709 mmHg 92%
    04:00 +9°C° 0 mm 1 mps 709 mmHg 92%
    05:00 +9°C° 0 mm 1 mps 709 mmHg 92%
    06:00 +10°C° 0 mm 1 mps 710 mmHg 88%
    07:00 +12°C° 0 mm 1 mps 710 mmHg 83%
    08:00 +14°C° 0 mm 2 mps 710 mmHg 79%
    09:00 +15°C° 0 mm 2 mps 710 mmHg 74%
    10:00 +16°C° 0 mm 2 mps 710 mmHg 68%
    11:00 +18°C° 0 mm 2 mps 710 mmHg 63%
    12:00 +18°C° 0.3 mm 2 mps 710 mmHg 61%
    13:00 +19°C° 0.3 mm 2 mps 710 mmHg 59%
    14:00 +20°C° 0.3 mm 2 mps 709 mmHg 57%
    15:00 +19°C° 0.8 mm 2 mps 709 mmHg 62%
    16:00 +19°C° 0.8 mm 2 mps 709 mmHg 67%
    17:00 +19°C° 0.8 mm 1 mps 709 mmHg 72%
    18:00 +18°C° 0.5 mm 1 mps 709 mmHg 75%
    19:00 +16°C° 0.5 mm 1 mps 708 mmHg 78%
    20:00 +14°C° 0.5 mm 1 mps 708 mmHg 82%
    21:00 +14°C° 0.1 mm 1 mps 709 mmHg 82%
    22:00 +13°C° 0.1 mm 1 mps 709 mmHg 82%
    23:00 +13°C° 0.1 mm 1 mps 709 mmHg 83%

    31 May, Sunday

    Time Temperature Precipitation Wind Pressure Humidity
    00:00 +13°C° 0.1 mm 1 mps 709 mmHg 85%
    01:00 +12°C° 0.1 mm 1 mps 709 mmHg 87%
    02:00 +12°C° 0.1 mm 1 mps 709 mmHg 89%
    03:00 +11°C° 0 mm 1 mps 708 mmHg 90%
    04:00 +11°C° 0 mm 1 mps 708 mmHg 91%
    05:00 +10°C° 0 mm 1 mps 708 mmHg 91%
    06:00 +12°C° 0 mm 1 mps 708 mmHg 88%
    07:00 +13°C° 0 mm 1 mps 708 mmHg 85%
    08:00 +15°C° 0 mm 1 mps 709 mmHg 81%
    09:00 +16°C° 0.2 mm 2 mps 709 mmHg 76%
    10:00 +17°C° 0.2 mm 2 mps 709 mmHg 71%
    11:00 +18°C° 0.2 mm 3 mps 709 mmHg 66%
    12:00 +19°C° 0.7 mm 3 mps 709 mmHg 67%
    13:00 +19°C° 0.7 mm 3 mps 708 mmHg 67%
    14:00 +19°C° 0.7 mm 3 mps 708 mmHg 68%
    15:00 +19°C° 1 mm 3 mps 708 mmHg 71%
    16:00 +18°C° 1 mm 3 mps 707 mmHg 74%
    17:00 +18°C° 1 mm 3 mps 707 mmHg 77%
    18:00 +16°C° 0.7 mm 2 mps 707 mmHg 81%
    19:00 +15°C° 0.7 mm 2 mps 707 mmHg 85%
    20:00 +13°C° 0.7 mm 1 mps 707 mmHg 89%
    21:00 +13°C° 0 mm 1 mps 707 mmHg 90%
    22:00 +12°C° 0 mm 1 mps 707 mmHg 90%
    23:00 +11°C° 0 mm 1 mps 707 mmHg 90%

    1 June, Monday

    Time Temperature Precipitation Wind Pressure Humidity
    00:00 +11°C° 0 mm 1 mps 707 mmHg 90%
    01:00 +10°C° 0 mm 1 mps 707 mmHg 89%
    02:00 +9°C° 0 mm 2 mps 707 mmHg 89%
    03:00 +9°C° 0 mm 1 mps 707 mmHg 90%
    04:00 +9°C° 0 mm 1 mps 707 mmHg 90%
    05:00 +9°C° 0 mm 1 mps 706 mmHg 91%
    06:00 +9°C° 0 mm 2 mps 707 mmHg 87%
    07:00 +12°C° 0 mm 2 mps 707 mmHg 83%
    08:00 +14°C° 0 mm 2 mps 707 mmHg 78%
    09:00 +14°C° 0 mm 3 mps 707 mmHg 72%
    10:00 +16°C° 0 mm 3 mps 707 mmHg 66%
    11:00 +17°C° 0 mm 3 mps 707 mmHg 59%
    12:00 +18°C° 0.1 mm 3 mps 707 mmHg 58%
    13:00 +18°C° 0.1 mm 3 mps 706 mmHg 56%
    14:00 +19°C° 0.1 mm 3 mps 706 mmHg 55%
    15:00 +19°C° 0.1 mm 3 mps 706 mmHg 57%
    16:00 +18°C° 0.1 mm 3 mps 706 mmHg 59%
    17:00 +18°C° 0.1 mm 3 mps 706 mmHg 61%
    18:00 +16°C° 0 mm 2 mps 705 mmHg 69%
    19:00 +15°C° 0 mm 2 mps 705 mmHg 77%
    20:00 +13°C° 0 mm 1 mps 705 mmHg 85%
    21:00 +12°C° 0 mm 1 mps 705 mmHg 86%
    22:00 +12°C° 0 mm 1 mps 705 mmHg 87%
    23:00 +10°C° 0 mm 0 mps 705 mmHg 88%

    2 June, Tuesday

    Time Temperature Precipitation Wind Pressure Humidity
    00:00 +10°C° 0 mm 0 mps 705 mmHg 88%
    01:00 +11°C° 0 mm 1 mps 705 mmHg 88%
    02:00 +11°C° 0 mm 1 mps 705 mmHg 88%
    03:00 +10°C° 0 mm 0 mps 705 mmHg 88%
    04:00 +10°C° 0 mm 0 mps 705 mmHg 88%
    05:00 +10°C° 0 mm 0 mps 705 mmHg 88%
    06:00 +11°C° 0 mm 0 mps 705 mmHg 85%
    07:00 +12°C° 0 mm 0 mps 706 mmHg 82%
    08:00 +13°C° 0 mm 0 mps 706 mmHg 79%
    09:00 +15°C° 0.3 mm 0 mps 706 mmHg 75%
    10:00 +17°C° 0.3 mm 0 mps 706 mmHg 70%
    11:00 +18°C° 0.3 mm 0 mps 707 mmHg 66%
    12:00 +21°C° 0.8 mm 1 mps 706 mmHg 66%
    13:00 +21°C° 0.8 mm 1 mps 706 mmHg 67%
    14:00 +21°C° 0.8 mm 1 mps 706 mmHg 68%
    15:00 +20°C° 1.4 mm 1 mps 706 mmHg 71%
    16:00 +20°C° 1.4 mm 1 mps 705 mmHg 75%
    17:00 +19°C° 1.4 mm 1 mps 705 mmHg 79%
    18:00 +18°C° 0.7 mm 1 mps 705 mmHg 82%
    19:00 +16°C° 0.7 mm 1 mps 705 mmHg 84%
    20:00 +15°C° 0.7 mm 1 mps 705 mmHg 87%
    21:00 +14°C° 0.2 mm 1 mps 705 mmHg 88%
    22:00 +14°C° 0.2 mm 1 mps 705 mmHg 89%
    23:00 +13°C° 0.2 mm 1 mps 705 mmHg 89%
    Show more